Retour au catalogue

YAOGAN-30 X

ActifMilitaireVLEO
NORAD 48423·PAYLOAD·🇨🇳 China

Lancé May 6, 2021 depuis Xichang Satellite Launch Center

Loading…

Prochains Passages (prochaines 24 heures)

TLE

FraisSource: Space-Track

Époque: Sep 14, 2026, 13:57 UTC

1 48423U 21039A   26257.58130141  .00002100  00000-0  15493-3 0  9999
2 48423  34.9966 206.6430 0003143 107.0900 253.0153 15.03035285293004

Suivez YAOGAN-30 X en temps réel avec AllMySat

Download on the App Store